Mushin, Nigeria
Current Conditions -  °F | °C
As of 3:00 AM on Sunday 26 Oct 2014 (Local Time) from DXXX Reporting Station
Scattered Clouds Scattered Clouds  
Wind Chill: 75°   Ceiling: Unl
Heat Index: 75°   Visibility: 6mi
Dew Point: 75°   Wind: 0mph
Humidity: 100%   Direction: NA
Pressure: 29.85"   Gusts: NA
Location:  6.53°N, 3.36°E
Report Text: DXXX 260200Z 00000KT 9999 SCT010 24/24 Q1011 NOSIG
Loading
Personal Weather Stations






























Interactive Weather Map
Tropical Storm Tracking
New forecast layout! Learn more

10-Day Weather Forecast

Advertisements
Track Severe Weather on mobile